EW8655 Weather Reports


Display with metric or nautical units.
time (UTC)temp
F
wind
direction
speed
MPH
gust
MPH
rain 1hr
in
rain 24hr
in
rain mn
in
humidity
%
barometer
mb
20260502232007 46 249 14.0 16.0 0.00 0.00 0.00 67 1013.1
20260502231506 46 253 12.0 16.0 0.00 0.00 0.00 66 1013.1
20260502231007 46 265 14.0 16.0 0.00 0.00 0.00 65 1013.1
20260502230507 46 262 14.0 16.0 0.00 0.00 0.00 65 1013.1
20260502230006 46 266 14.0 18.0 0.00 0.00 0.00 65 1013.1
20260502225507 46 251 14.0 18.0 0.00 0.00 0.00 65 1013.1
20260502225006 46 261 14.0 18.0 0.00 0.00 0.00 64 1013.1
20260502224506 47 266 10.0 16.0 0.00 0.00 0.00 62 1013.1
20260502224007 47 288 7.0 14.0 0.00 0.00 0.00 61 1013.1
20260502223507 47 286 9.0 14.0 0.00 0.00 0.00 61 1013.1
20260502223006 47 290 9.0 14.0 0.00 0.00 0.00 61 1013.1
20260502222506 47 308 9.0 12.0 0.00 0.00 0.00 61 1013.1
20260502222006 47 297 7.0 9.0 0.00 0.00 0.00 62 1013.1
20260502221506 47 290 7.0 9.0 0.00 0.00 0.00 61 1013.1
20260502221007 47 306 7.0 12.0 0.00 0.00 0.00 62 1013.1
20260502220506 47 313 9.0 14.0 0.00 0.00 0.00 62 1013.1
20260502220006 47 294 8.0 14.0 0.00 0.00 0.00 62 1013.1
20260502215506 47 344 9.0 14.0 0.00 0.00 0.00 62 1013.1
20260502214506 48 317 5.0 12.0 0.00 0.00 0.00 63 1013.1
20260502214007 48 282 2.0 9.0 0.00 0.00 0.00 63 1013.1
20260502213506 48 273 2.0 12.0 0.00 0.00 0.00 63 1013.1
20260502213006 47 323 5.0 12.0 0.00 0.00 0.00 63 1013.1
20260502212506 47 300 5.0 12.0 0.00 0.00 0.00 64 1013.1
20260502212006 48 341 5.0 9.0 0.00 0.00 0.00 63 1013.1
20260502211506 48 289 5.0 9.0 0.00 0.00 0.00 64 1013.1
20260502210507 47 291 5.0 12.0 0.00 0.00 0.00 65 1013.1
20260502205506 47 323 7.0 14.0 0.00 0.00 0.00 65 1013.1
20260502205007 47 323 9.0 14.0 0.00 0.00 0.00 65 1013.1
20260502204507 47 305 7.0 14.0 0.00 0.00 0.00 65 1013.1
20260502204006 47 332 6.0 12.0 0.00 0.00 0.00 65 1013.1
20260502203506 47 314 4.0 12.0 0.00 0.00 0.00 66 1013.1
20260502203006 47 341 5.0 14.0 0.00 0.00 0.00 66 1013.1
20260502202006 47 268 7.0 14.0 0.00 0.00 0.00 65 1013.1
20260502201506 47 297 5.0 12.0 0.00 0.00 0.00 65 1013.1
20260502201007 47 311 5.0 12.0 0.00 0.00 0.00 66 1013.1
20260502200506 47 295 7.0 12.0 0.00 0.00 0.00 66 1013.1
20260502200006 47 321 7.0 12.0 0.00 0.00 0.00 67 1013.1
20260502195506 47 295 3.0 12.0 0.00 0.00 0.00 67 1013.1
20260502195007 47 292 5.0 12.0 0.00 0.00 0.00 67 1013.1
20260502194007 47 301 3.0 12.0 0.00 0.00 0.00 67 1013.1
20260502193506 47 340 9.0 12.0 0.00 0.00 0.00 67 1013.1
20260502193007 47 291 4.0 12.0 0.00 0.00 0.00 67 1013.1
20260502192007 46 298 9.0 16.0 0.00 0.00 0.00 68 1013.1
20260502191506 47 295 7.0 16.0 0.00 0.00 0.00 68 1013.1
20260502190506 47 323 9.0 16.0 0.00 0.00 0.00 68 1013.1
20260502190006 47 308 9.0 16.0 0.00 0.00 0.00 67 1013.1
20260502185506 47 291 9.0 16.0 0.00 0.00 0.00 67 1013.1
20260502184506 48 328 5.0 16.0 0.00 0.00 0.00 67 1013.1
20260502184007 48 268 5.0 16.0 0.00 0.00 0.00 67 1013.1
20260502183506 48 294 5.0 12.0 0.00 0.00 0.00 67 1013.1
20260502183006 48 10 5.0 12.0 0.00 0.00 0.00 67 1013.1
20260502182006 47 347 7.0 14.0 0.00 0.00 0.00 67 1013.1
20260502181506 48 294 6.0 14.0 0.00 0.00 0.00 68 1013.1
20260502181006 48 301 8.0 18.0 0.00 0.00 0.00 68 1013.1
20260502180506 47 305 9.0 18.0 0.00 0.00 0.00 68 1013.1
20260502170506 46 295 6.0 12.0 0.00 0.00 0.00 70 1013.1
20260502164006 45 312 7.0 18.0 0.00 0.00 0.00 70 1013.1
20260502163507 45 297 7.0 18.0 0.00 0.00 0.00 70 1013.1
20260502163006 45 290 5.0 14.0 0.00 0.00 0.00 69 1013.1
20260502162505 45 317 9.0 14.0 0.00 0.00 0.00 70 1013.1
20260502162007 45 310 7.0 16.0 0.00 0.00 0.00 69 1013.1
20260502161506 45 306 9.0 16.0 0.00 0.00 0.00 69 1013.1
20260502161007 44 328 11.0 16.0 0.00 0.00 0.00 69 1013.1
20260502160505 45 296 10.0 16.0 0.00 0.00 0.00 69 1013.1
20260502152006 44 328 5.0 14.0 0.00 0.00 0.00 74 1014.1
20260502151505 43 353 7.0 14.0 0.00 0.00 0.00 73 1014.1
20260502151005 44 330 5.0 14.0 0.00 0.00 0.00 73 1014.1
20260502150506 43 325 5.0 12.0 0.00 0.00 0.00 73 1014.1
20260502123505 41 255 12.0 16.0 0.00 0.00 0.00 83 1014.1
20260502123006 41 259 12.0 16.0 0.00 0.00 0.00 83 1014.1
20260502122506 41 262 14.0 16.0 0.00 0.00 0.00 83 1015.1
20260502122006 41 272 14.0 16.0 0.00 0.00 0.00 84 1015.0
20260502121506 40 264 14.0 18.0 0.00 0.00 0.00 84 1014.7
20260502121006 40 266 14.0 18.0 0.00 0.00 0.00 84 1015.1
20260502120506 40 271 11.0 16.0 0.00 0.00 0.00 85 1015.1
20260502115505 40 261 12.0 18.0 0.00 0.00 0.00 85 1015.1
20260502115006 40 256 12.0 18.0 0.00 0.00 0.00 85 1015.1
20260502114006 40 264 14.0 16.0 0.00 0.00 0.00 86 1015.1
20260502113506 40 257 14.0 14.0 0.00 0.00 0.00 86 1015.0
20260502113006 39 267 14.0 16.0 0.00 0.00 0.00 86 1015.1
20260502112506 39 253 12.0 16.0 0.00 0.00 0.00 86 1015.1
20260502112007 39 241 12.0 14.0 0.00 0.00 0.00 87 1015.1
20260502111506 39 251 12.0 14.0 0.00 0.00 0.00 87 1015.1
20260502111008 39 262 12.0 12.0 0.00 0.00 0.00 87 1015.1
20260502110507 39 252 9.0 14.0 0.00 0.00 0.00 87 1015.1
20260502110007 39 255 9.0 14.0 0.00 0.00 0.00 87 1015.1
20260502105507 39 252 9.0 12.0 0.00 0.00 0.00 87 1015.1
20260502104507 38 250 9.0 9.0 0.00 0.00 0.00 87 1015.1
20260502103508 38 264 9.0 12.0 0.00 0.00 0.00 87 1014.6
20260502103008 38 258 9.0 12.0 0.00 0.00 0.00 87 1014.6
20260502102508 38 259 9.0 12.0 0.00 0.00 0.00 87 1014.1
20260502102008 38 269 9.0 12.0 0.00 0.00 0.00 87 1014.1
20260502101508 38 261 9.0 9.0 0.00 0.00 0.00 87 1014.1
20260502100508 38 255 9.0 9.0 0.00 0.00 0.00 86 1014.1
20260502091507 39 266 9.0 12.0 0.00 0.00 0.00 85 1014.1
20260502091008 39 263 10.0 12.0 0.00 0.00 0.00 84 1014.1
20260502090507 39 270 9.0 14.0 0.00 0.00 0.00 83 1014.1
20260502071506 42 274 9.0 12.0 0.00 0.00 0.00 81 1013.1
20260502071007 42 278 9.0 12.0 0.00 0.00 0.00 80 1013.1
20260502070508 42 295 9.0 12.0 0.00 0.00 0.00 80 1013.1
20260502070007 42 292 9.0 12.0 0.00 0.00 0.00 80 1013.1
20260502065507 42 289 9.0 12.0 0.00 0.00 0.00 80 1013.1
20260502065007 42 288 7.0 9.0 0.00 0.00 0.00 80 1013.1
20260502064507 43 288 7.0 12.0 0.00 0.00 0.00 79 1013.1
20260502064008 43 294 6.0 12.0 0.00 0.00 0.00 79 1013.1
20260502063007 43 297 9.0 12.0 0.00 0.00 0.00 80 1013.1
20260502062507 43 280 9.0 14.0 0.00 0.00 0.00 80 1013.1
20260502061507 43 288 7.0 9.0 0.00 0.00 0.00 80 1013.1
20260502061007 43 297 5.0 9.0 0.00 0.00 0.00 80 1013.1
20260502060507 43 298 2.0 7.0 0.00 0.00 0.00 81 1013.1
20260502055506 43 301 3.0 7.0 0.00 0.00 0.00 83 1013.1
20260502055007 44 289 3.0 7.0 0.00 0.00 0.00 84 1013.1
20260502054507 44 335 5.0 7.0 0.00 0.00 0.00 85 1013.1
20260502054007 44 277 5.0 7.0 0.00 0.00 0.00 85 1013.1
20260502053507 44 273 5.0 7.0 0.00 0.00 0.00 85 1013.1
20260502053007 44 267 7.0 7.0 0.00 0.00 0.00 85 1013.1
20260502052507 44 253 7.0 9.0 0.00 0.00 0.00 85 1013.1
20260502052007 44 254 7.0 9.0 0.00 0.00 0.00 85 1013.1
20260502051507 44 245 7.0 9.0 0.00 0.00 0.00 85 1013.1
20260502051008 44 247 7.0 9.0 0.00 0.00 0.00 85 1013.1
20260502050508 44 249 7.0 9.0 0.00 0.00 0.00 85 1013.1
20260502050007 44 237 7.0 9.0 0.00 0.00 0.00 85 1013.1
20260502045506 44 247 7.0 9.0 0.00 0.00 0.00 85 1013.1
20260502044507 44 245 7.0 9.0 0.00 0.00 0.00 85 1013.1
20260502044007 44 249 7.0 9.0 0.00 0.00 0.00 85 1013.1
20260502043507 44 255 9.0 9.0 0.00 0.00 0.00 85 1013.1
20260502043007 44 256 7.0 9.0 0.00 0.00 0.00 85 1013.1
20260502042507 44 265 7.0 9.0 0.00 0.00 0.00 85 1013.1
20260502042007 44 272 7.0 9.0 0.00 0.00 0.00 85 1013.1
20260502041507 44 269 8.0 9.0 0.00 0.00 0.00 85 1013.1
20260502041008 44 263 9.0 9.0 0.00 0.00 0.00 85 1013.1
20260502040507 44 267 9.0 12.0 0.00 0.00 0.00 86 1013.1
20260502040007 45 281 9.0 12.0 0.00 0.00 0.00 86 1013.1
20260502035507 45 287 8.0 12.0 0.00 0.00 0.00 87 1013.1
20260502035008 45 275 9.0 12.0 0.00 0.00 0.00 88 1013.1
20260502034007 45 264 7.0 9.0 0.00 0.00 0.00 91 1013.1
20260502033507 45 275 7.0 7.0 0.00 0.00 0.00 91 1013.1
20260502032507 44 260 6.0 7.0 0.00 0.00 0.00 90 1013.1
20260502032007 44 270 7.0 7.0 0.00 0.00 0.00 90 1013.1
20260502031506 44 264 5.0 7.0 0.00 0.00 0.00 89 1013.1
20260502031007 45 254 5.0 7.0 0.00 0.00 0.00 89 1013.1
20260502030507 45 260 5.0 7.0 0.00 0.00 0.00 89 1013.1
20260502030007 45 263 5.0 7.0 0.00 0.00 0.00 89 1012.8
20260502025507 45 233 5.0 7.0 0.00 0.00 0.00 89 1013.1
20260502024007 45 225 5.0 7.0 0.00 0.00 0.00 88 1012.3
20260502023507 45 228 5.0 7.0 0.00 0.00 0.00 88 1012.9
20260502022507 45 231 5.0 7.0 0.00 0.00 0.00 87 1013.1
20260502022007 45 227 5.0 7.0 0.00 0.00 0.00 87 1013.1
20260502021507 45 226 5.0 7.0 0.00 0.00 0.00 87 1013.1
20260502021008 45 214 5.0 7.0 0.00 0.00 0.00 87 1012.3
20260502020007 46 226 5.0 5.0 0.00 0.00 0.00 86 1012.8
20260502015008 46 223 5.0 5.0 0.00 0.00 0.00 86 1012.1
20260502014507 46 231 5.0 5.0 0.00 0.00 0.00 86 1012.1
20260502013007 46 239 5.0 5.0 0.00 0.00 0.00 86 1012.1
20260502012507 46 280 5.0 5.0 0.00 0.00 0.00 86 1012.1
20260502012007 46 262 2.0 5.0 0.00 0.00 0.00 86 1012.1
20260502011007 46 279 2.0 2.0 0.00 0.00 0.00 86 1012.1
20260502010507 46 284 2.0 5.0 0.00 0.00 0.00 86 1012.1
20260502010006 46 265 2.0 5.0 0.00 0.00 0.00 86 1012.1
20260502004507 46 237 2.0 5.0 0.00 0.00 0.00 86 1012.1
20260502003007 46 222 2.0 5.0 0.00 0.00 0.00 85 1012.1
20260502002506 46 228 2.0 5.0 0.00 0.00 0.00 85 1012.1
20260502002008 46 260 2.0 5.0 0.00 0.00 0.00 85 1012.1
20260502001507 46 238 5.0 7.0 0.00 0.00 0.00 85 1012.1
20260502001007 46 251 5.0 7.0 0.00 0.00 0.00 85 1012.1
20260502000507 46 256 5.0 7.0 0.00 0.00 0.00 85 1012.1
20260502000007 46 257 5.0 5.0 0.00 0.00 0.00 85 1012.1
20260501235506 46 233 5.0 5.0 0.00 0.00 0.00 85 1012.1
20260501234507 46 230 5.0 5.0 0.00 0.00 0.00 84 1012.0
20260501234007 46 225 2.0 7.0 0.00 0.00 0.00 84 1011.7
20260501233506 46 248 5.0 7.0 0.00 0.00 0.00 84 1011.7
20260501232506 46 208 5.0 5.0 0.00 0.00 0.00 85 1012.1